Home   Weather   Laredo   Past weeks
Flag for USA

Past Weather in Laredo, Texas, USA — Yesterday and Last 2 Weeks

Now
85 °F

Light rain. Mostly cloudy.


Feels Like: 90 °F
Forecast: 91 / 76 °F
Wind: 20 mph from East

Location: Laredo International Airport

Current Time: Jun 25, 2019 at 5:00:05 pm

Latest Report: Jun 25, 2019 at 3:56 pm


Visibility: 10 mi

Pressure: 29.89 "Hg

Humidity: 63%

Dew Point: 71 °F

Location of LaredoLocation

Past Weather in Laredo — Graph

°F

Laredo Temperature Yesterday

Maximum temperature yesterday: 103 °F (at 4:56 pm)
Minimum temperature yesterday: 77 °F (at 7:56 pm)
Average temperature yesterday: 88 °F

High & Low Weather Summary for the Past Weeks

 TemperatureHumidityPressure
High107 °F (Jun 19, 3:56 pm)94% (Jun 22, 3:27 am)30.14 "Hg (Jun 22, 3:27 am)
Low72 °F (Jun 12, 2:56 am)24% (Jun 19, 5:56 pm)29.65 "Hg (Jun 23, 6:56 pm)
Average88 °F60%29.85 "Hg
* Reported Jun 10 3:56 pm — Jun 25 3:56 pm, Laredo. Weather by CustomWeather, © 2019

Note: Actual official high and low records may vary slightly from our data, if they occured in-between our weather recording intervals... More about our weather records

Advertising

Laredo Weather History for the Previous 24 Hours

Scroll right to see more
 ConditionsComfort  
Time TempWeatherWind HumidityBarometerVisibility
3:56 pm
Tue, Jun 25
85 °FLight rain. Mostly cloudy.20 mph63%29.89 "Hg10 mi
2:56 pm93 °FPartly sunny.13 mph42%29.88 "Hg10 mi
1:56 pm93 °FScattered clouds.12 mph42%29.91 "Hg10 mi
12:56 pm90 °FPartly sunny.6 mph47%29.92 "Hg10 mi
11:56 am88 °FMore clouds than sun.10 mph50%29.94 "Hg10 mi
10:56 am85 °FPartly sunny.7 mph55%29.95 "Hg10 mi
9:56 am84 °FPassing clouds.9 mph57%29.93 "Hg10 mi
8:56 am81 °FSunny.No wind60%29.90 "Hg10 mi
7:56 am77 °FSunny.3 mph71%29.90 "Hg10 mi
6:56 am74 °FSunny.No wind82%29.92 "Hg10 mi
5:56 am74 °FPassing clouds.No wind82%29.94 "Hg10 mi
4:56 am76 °FClear.3 mph74%29.94 "Hg10 mi
3:56 am77 °FClear.3 mph69%29.95 "Hg10 mi
2:56 am77 °FClear.6 mph71%29.91 "Hg10 mi
1:56 am77 °FClear.10 mph77%29.85 "Hg10 mi
12:56 am79 °FPassing clouds.23 mph77%29.83 "Hg10 mi
11:56 pm
Mon, Jun 24
82 °FMostly cloudy.9 mph72%29.96 "Hg10 mi
10:56 pm81 °FPassing clouds.6 mph74%29.92 "Hg10 mi
9:56 pm81 °FClear.13 mph74%29.88 "Hg10 mi
8:56 pm81 °FPassing clouds.16 mph79%29.78 "Hg10 mi
8:25 pm81 °FPartly sunny.26 mph79%29.74 "Hg10 mi
7:56 pm77 °FThunderstorms. Partly sunny.28 mph85%29.76 "Hg9 mi
6:56 pm87 °FScattered clouds.25 mph61%29.78 "Hg10 mi
6:31 pm90 °FPassing clouds.26 mph59%29.78 "Hg10 mi
6:17 pm91 °FThundershowers. Scattered clouds.29 mph56%29.76 "Hg10 mi
5:56 pm96 °FScattered clouds.21 mph51%29.72 "Hg10 mi
Weather by CustomWeather, © 2019

See weather overview